Weather History for KMMK - November, 2013

Change the Weather History Date:

Monday, November 18, 2013

  Actual Average (KHVN) Record (KHVN)
Temperature  
Mean Temperature 58 °F -  
Max Temperature 66 °F 49 °F 69 °F (1987)
Min Temperature 50 °F 35 °F 24 °F (1999)
Degree Days  
Heating Degree Days 6    
Growing Degree Days 8 (Base 50)    
Moisture  
Dew Point 46 °F    
Average Humidity 67    
Maximum Humidity 97    
Minimum Humidity 31    
Precipitation  
Precipitation 0.36 in - - ()
Sea Level Pressure  
Sea Level Pressure 29.65 in    
Wind  
Wind Speed 9 mph (SW)    
Max Wind Speed 16 mph    
Max Gust Speed 33 mph    
Visibility 8 miles    
Events Rain    
Averages and records for this station are not official NWS values.
T = Trace of Precipitation, MM = Missing Value Source: NWS Daily Summary

Daily Weather History Graph

Daily Weather History Graph

Search for Another Location

Airport or City:

Trip Planner

Search our weather history database for the weather conditions in past years. The results will help you decide how hot, cold, wet, or windy it might be!

Date:

Astronomy

Nov. 18, 2013 Rise Set
Actual Time 6:43 AM EST 4:28 PM EST
Civil Twilight 6:13 AM EST 4:58 PM EST
Nautical Twilight 5:40 AM EST 5:32 PM EST
Astronomical Twilight 5:07 AM EST 6:05 PM EST
Moon 5:28 PM EST (11/18) 7:30 AM EST (11/18)
Length of Visible Light 10h 44m
Length of Day
9h 44m
Full, 99% of the Moon is Illuminated
Nov 18
Full
Nov 25
Last Quarter
Dec 2
New
Dec 9
First Quarter
Dec 17
Full

Hourly Weather History & Observations

Time (EST) Temp. Dew Point Humidity Pressure Visibility Wind Dir Wind Speed Gust Speed Precip Events Conditions
12:53 AM 57.0 °F 55.9 °F 96% 29.78 in 10.0 mi South 8.1 mph - 0.00 in   Overcast
1:09 AM 57.0 °F 55.9 °F 96% 29.76 in 8.0 mi South 8.1 mph - 0.01 in Rain Light Rain
1:29 AM 57.9 °F 55.9 °F 93% 29.75 in 10.0 mi South 8.1 mph - 0.01 in   Overcast
1:53 AM 57.9 °F 55.9 °F 93% 29.74 in 10.0 mi South 9.2 mph - 0.01 in Rain Light Rain
2:11 AM 57.9 °F 57.0 °F 97% 29.72 in 9.0 mi South 9.2 mph - 0.00 in Rain Light Rain
2:53 AM 59.0 °F 57.0 °F 93% 29.68 in 7.0 mi South 6.9 mph - 0.01 in Rain Light Rain
3:44 AM 60.1 °F 57.9 °F 93% 29.63 in 10.0 mi South 10.4 mph 19.6 mph 0.00 in Rain Light Rain
3:53 AM 60.1 °F 57.9 °F 93% 29.62 in 4.0 mi South 10.4 mph - 0.02 in Rain Rain
4:03 AM 60.1 °F 57.9 °F 93% 29.61 in 1.8 mi South 10.4 mph - 0.07 in Rain Heavy Rain
4:11 AM 60.1 °F 57.9 °F 93% 29.61 in 2.5 mi South 10.4 mph - 0.10 in Rain Rain
4:19 AM 60.1 °F 57.9 °F 93% 29.60 in 3.0 mi South 10.4 mph - 0.11 in Rain Light Rain
4:53 AM 61.0 °F 59.0 °F 93% 29.58 in 3.0 mi South 13.8 mph 21.9 mph 0.22 in Rain Heavy Rain
5:02 AM 61.0 °F 59.0 °F 93% 29.58 in 4.0 mi South 12.7 mph - 0.03 in Rain Rain
5:26 AM 61.0 °F 59.0 °F 93% 29.60 in 4.0 mi SSW 8.1 mph - 0.09 in Rain Light Rain
5:41 AM 61.0 °F 57.0 °F 87% 29.62 in 5.0 mi West 11.5 mph 33.4 mph 0.10 in Rain Light Rain
5:51 AM 60.8 °F 53.6 °F 77% 29.62 in 10.0 mi Variable 6.9 mph 20.7 mph 0.10 in   Overcast
5:53 AM 60.1 °F 54.0 °F 80% 29.61 in 10.0 mi WSW 10.4 mph 20.7 mph 0.10 in   Overcast
6:53 AM 60.1 °F 48.9 °F 67% 29.62 in 10.0 mi SW 10.4 mph - 0.00 in Rain Light Rain
7:53 AM 57.0 °F 50.0 °F 77% 29.61 in 10.0 mi SSE 6.9 mph - 0.00 in Rain Light Rain
8:53 AM 59.0 °F 46.9 °F 64% 29.64 in 10.0 mi Variable 4.6 mph - 0.00 in   Clear
9:53 AM 62.1 °F 43.0 °F 50% 29.64 in 10.0 mi West 10.4 mph - N/A   Clear
10:53 AM 63.0 °F 37.9 °F 40% 29.62 in 10.0 mi West 10.4 mph 19.6 mph N/A   Clear
11:53 AM 63.0 °F 35.1 °F 35% 29.59 in 10.0 mi West 12.7 mph 23.0 mph N/A   Clear
12:53 PM 64.9 °F 37.9 °F 37% 29.59 in 10.0 mi SSW 12.7 mph - N/A   Clear
1:53 PM 66.0 °F 35.1 °F 32% 29.59 in 10.0 mi West 8.1 mph - N/A   Clear
2:53 PM 64.9 °F 33.1 °F 31% 29.58 in 10.0 mi WSW 8.1 mph - N/A   Clear
3:53 PM 63.0 °F 33.1 °F 33% 29.59 in 10.0 mi SW 8.1 mph - N/A   Clear
4:53 PM 59.0 °F 33.1 °F 38% 29.62 in 10.0 mi SSW 5.8 mph - N/A   Clear
5:53 PM 54.0 °F 33.1 °F 45% 29.64 in 10.0 mi SSW 6.9 mph - N/A   Clear
6:53 PM 55.0 °F 30.9 °F 40% 29.66 in 10.0 mi West 5.8 mph - N/A   Clear
7:53 PM 55.9 °F 28.0 °F 34% 29.67 in 10.0 mi West 6.9 mph - N/A   Clear
8:53 PM 55.0 °F 28.0 °F 35% 29.68 in 10.0 mi West 5.8 mph - N/A   Clear
9:53 PM 54.0 °F 28.0 °F 37% 29.70 in 10.0 mi West 6.9 mph - N/A   Clear
10:53 PM 51.1 °F 28.9 °F 43% 29.72 in 10.0 mi WNW 16.1 mph 20.7 mph N/A   Scattered Clouds
11:53 PM 50.0 °F 24.1 °F 36% 29.73 in 10.0 mi WNW 10.4 mph - N/A   Clear